Theta_e
330 330 329 327 327 326 326 325 325 325 324 322 321 319 319 318 318 318 318 317 315 316 315 316 315 316 316 316 316 316 315 315 314 313 312 314 315 315 319 323 329 332 331 332 332 331 331 331 331 331 330 329 329 329 331 333 334 334 333 333 331 330 329 327 325 324 324 324 324 324 324 324 323 323 323 323 323 323 323 322 322 322 322 322 321
328 328 328 327 327 326 325 325 324 325 324 323 322 320 318 317 316 316 316 316 316 316 315 315 316 316 316 317 317 317 317 316 316 314 315 315 315 315 317 320 325 330 332 332 332 332 331 331 331 331 331 331 330 330 330 331 334 334 333 333 332 331 330 328 326 325 324 324 324 324 323 324 324 323 323 323 322 323 322 322 322 322 321 321 321
328 327 326 326 325 324 323 323 323 323 324 323 322 320 318 318 318 317 317 316 316 317 316 316 316 317 316 316 317 317 317 317 315 316 315 315 315 315 316 317 321 326 330 332 332 332 332 332 331 331 331 332 331 331 330 330 331 333 333 333 333 332 330 329 327 325 324 324 324 323 324 323 324 323 323 323 322 322 322 322 321 321 321 320 320
328 328 327 326 325 324 323 322 322 322 322 322 321 320 319 318 318 318 318 318 317 316 315 315 316 316 316 316 317 316 317 317 317 317 317 317 316 316 316 316 318 321 325 331 332 332 332 332 332 331 331 332 332 332 331 331 330 330 332 333 333 332 331 330 328 326 325 324 324 324 323 324 324 323 323 323 322 322 322 321 321 321 321 320 319
327 328 326 327 326 324 323 322 322 322 321 321 321 319 317 317 317 316 316 315 315 315 314 314 314 316 315 316 316 316 317 317 317 317 317 317 317 316 316 316 316 317 319 322 327 331 332 332 332 332 331 331 332 331 331 331 330 331 331 333 334 334 333 331 329 327 326 324 324 323 323 323 323 323 323 323 323 322 321 321 321 320 320 320 319
326 326 327 327 326 324 323 323 322 321 321 320 320 318 318 317 317 315 315 315 315 315 314 314 314 313 314 315 315 316 317 316 317 317 318 318 318 316 316 316 316 316 316 318 320 325 329 332 332 332 332 331 331 332 331 331 330 330 331 333 334 333 333 332 330 328 326 324 324 324 323 323 323 323 323 323 323 322 322 321 320 320 320 319 319
324 325 325 325 325 324 323 323 322 321 320 319 320 318 318 317 316 316 316 315 314 315 315 315 315 315 314 314 314 315 315 316 317 317 317 318 317 317 316 316 316 316 317 316 316 319 324 329 332 333 333 333 332 331 332 331 331 330 330 331 333 333 333 332 331 329 327 325 324 324 323 324 323 323 323 323 323 322 322 321 321 321 320 320 319
325 323 323 323 324 324 324 323 321 321 321 319 319 319 318 317 317 317 317 316 314 314 314 314 314 314 314 312 313 313 314 315 316 317 317 317 317 317 317 317 317 317 315 317 316 316 318 322 328 331 332 333 333 333 333 332 331 331 331 331 332 333 333 332 331 331 328 326 324 323 323 323 323 323 322 322 322 322 322 321 321 321 320 320 320
326 324 323 322 322 323 323 322 321 321 320 320 319 319 319 318 317 316 317 317 315 314 314 314 314 314 314 313 313 312 313 314 315 316 317 316 317 317 317 317 316 314 317 317 318 317 316 317 322 326 327 329 333 334 334 333 333 332 331 331 332 332 333 333 332 331 329 327 325 324 323 322 323 322 322 322 322 322 322 321 321 321 321 320 320
325 325 324 323 322 321 321 321 320 320 320 320 320 319 319 319 318 317 316 316 315 315 315 314 313 314 314 313 314 313 313 314 314 312 314 315 316 317 318 318 317 317 317 317 318 318 317 317 318 319 319 321 327 332 334 334 334 333 332 332 332 332 332 332 333 331 330 328 327 326 323 322 322 322 322 321 321 321 321 321 321 321 321 320 320
324 324 324 323 321 321 320 320 320 320 320 319 319 318 318 318 318 318 315 316 317 316 315 314 314 313 314 314 314 314 314 314 314 314 314 315 316 316 317 317 317 317 317 317 317 317 317 317 317 316 317 317 322 327 330 333 333 333 333 332 332 332 333 332 332 331 330 329 326 325 324 323 323 322 322 322 321 321 321 321 321 320 320 320 320
323 324 324 323 322 321 320 320 320 320 319 319 319 319 318 317 316 317 316 314 314 316 315 313 311 310 311 312 313 313 313 313 313 314 315 315 315 315 316 317 316 317 317 317 317 316 316 316 315 316 316 316 317 320 323 328 329 332 334 334 332 332 332 332 333 332 330 329 327 326 325 324 323 323 323 323 322 321 321 321 321 320 320 320 320
322 323 323 321 322 321 320 319 320 319 320 319 320 319 319 318 317 315 315 315 315 314 315 313 312 313 311 311 311 312 312 312 314 314 315 316 316 316 316 315 315 316 317 317 316 316 316 316 316 316 316 316 316 316 318 321 323 329 332 333 334 333 332 332 332 333 332 329 328 327 326 325 324 324 324 324 323 323 322 322 322 322 321 321 320
321 322 322 323 322 321 320 320 319 319 320 320 319 317 317 316 316 314 314 315 315 315 314 314 312 312 310 307 306 307 311 312 313 314 315 316 316 316 317 316 316 316 316 316 316 316 316 316 316 316 315 315 315 316 316 316 318 324 330 333 333 333 333 332 332 332 332 331 329 328 327 327 326 325 325 324 324 324 323 323 322 322 322 322 321
322 321 322 323 322 322 321 320 320 319 318 318 319 318 318 316 316 316 314 313 315 314 314 316 313 309 310 308 306 302 301 304 310 313 316 316 316 315 316 316 317 317 317 316 316 316 316 316 316 315 315 315 315 315 315 314 315 318 325 329 330 333 333 333 333 332 331 331 330 329 328 328 327 326 326 325 325 324 324 323 323 323 323 322 322
322 321 321 323 322 322 322 321 320 319 319 318 318 318 318 317 316 316 316 313 312 314 315 315 315 310 306 309 302 297 302 300 302 304 309 314 315 316 315 316 316 316 315 315 316 316 317 316 316 316 316 315 315 315 314 314 316 318 319 320 322 329 332 332 333 332 331 331 330 330 329 328 328 327 327 326 325 326 325 324 324 324 324 323 322
322 322 321 322 322 322 321 321 320 320 319 319 318 318 318 318 317 316 316 315 314 313 312 315 315 317 311 301 300 300 301 299 294 303 301 305 309 313 313 314 315 315 314 315 316 316 316 315 315 315 315 315 315 314 314 314 314 313 315 314 318 324 328 331 332 332 332 331 331 330 329 328 328 328 328 328 327 326 326 325 325 324 324 324 323
322 322 322 320 321 322 322 321 320 320 319 319 319 319 318 317 318 318 316 317 316 313 312 310 316 315 317 315 307 301 296 295 300 297 294 302 306 305 310 312 312 313 312 313 313 315 315 315 315 315 315 315 315 314 314 314 313 314 313 315 319 321 324 328 331 331 331 331 331 330 330 330 329 328 328 328 327 327 327 327 326 325 325 325 324
322 322 322 321 321 322 321 321 320 320 319 319 319 319 319 319 318 318 318 317 316 314 313 312 308 314 316 317 315 305 298 302 299 294 299 297 298 304 307 307 310 310 311 312 313 314 315 314 314 314 314 315 315 314 313 313 315 315 318 319 322 323 324 326 328 330 331 332 331 330 330 330 329 329 328 328 327 327 327 326 326 326 326 326 325
322 322 322 321 321 321 321 321 321 320 319 319 319 320 319 320 319 319 318 317 316 315 314 313 311 312 313 314 314 315 312 305 302 305 301 301 304 298 298 304 305 309 311 312 312 313 314 313 313 313 313 314 314 314 314 313 313 314 316 321 324 325 326 326 327 327 329 330 331 330 330 330 330 329 329 328 328 328 327 327 327 327 326 326 325
322 322 321 322 320 320 321 321 320 320 318 319 319 320 319 319 318 317 317 317 317 317 316 314 313 313 309 312 313 314 313 313 308 303 306 299 305 306 304 300 300 305 308 310 312 313 314 315 314 313 313 313 313 314 314 314 313 313 315 319 324 326 328 328 327 327 328 328 329 329 330 330 329 329 329 328 328 328 328 327 327 327 327 327 326
321 321 321 322 321 320 320 320 320 320 318 319 319 319 319 319 319 318 318 317 318 317 316 316 315 314 313 312 311 311 311 311 310 308 304 306 306 306 300 298 301 300 302 307 310 311 313 313 313 312 313 313 313 312 312 313 313 313 313 314 319 324 327 328 328 328 328 327 326 326 328 329 329 330 330 329 329 328 328 327 327 327 327 327 327
320 320 321 321 321 320 320 320 321 319 318 319 319 319 319 319 319 318 317 317 317 317 315 316 316 315 313 313 312 312 311 310 311 310 309 304 304 307 309 306 306 307 305 307 309 311 312 312 313 312 312 312 312 312 312 312 308 310 308 310 314 318 321 326 328 328 328 328 327 326 327 327 328 329 329 329 329 330 329 329 329 328 327 327 326
320 320 320 321 321 321 320 320 319 320 320 320 320 319 319 319 319 318 318 318 318 316 317 316 315 315 314 314 313 313 313 312 312 311 309 310 307 307 307 299 299 304 301 301 304 308 309 311 311 312 313 312 312 312 312 312 312 307 308 309 312 316 321 325 326 327 327 328 328 327 327 327 327 327 328 328 329 329 329 328 329 328 328 328 327
319 319 320 320 320 320 320 320 319 320 320 320 320 320 319 319 319 318 318 317 317 317 316 316 316 315 315 315 314 314 313 314 311 310 311 311 309 307 309 304 306 306 300 300 302 300 309 309 311 312 313 312 312 311 311 311 312 308 304 308 308 311 315 319 324 326 326 326 327 327 327 327 328 328 327 327 328 328 328 328 328 328 327 328 326
319 319 321 321 320 321 321 321 321 321 320 320 320 320 319 319 318 318 317 318 318 317 317 316 316 316 316 315 314 314 314 314 313 311 310 308 307 307 307 299 300 305 300 297 296 304 303 306 310 311 311 311 312 312 311 311 312 306 303 307 310 309 311 314 318 322 325 325 326 326 326 326 327 327 326 328 327 327 328 328 328 327 327 327 327
321 321 321 320 320 321 321 321 321 321 320 319 319 319 319 319 318 318 318 318 318 317 317 316 316 316 315 315 315 314 314 314 313 313 312 311 311 309 306 305 302 297 303 298 298 304 308 301 307 310 310 311 311 311 311 310 308 306 303 307 310 307 308 313 316 319 321 323 324 324 324 325 325 325 325 325 326 326 327 327 327 327 327 327 328
322 321 321 320 321 320 320 320 321 321 320 320 319 319 319 319 318 318 318 318 318 317 317 317 316 316 316 316 315 315 315 314 314 314 313 313 312 309 308 307 305 304 296 302 301 304 303 307 302 307 309 310 310 310 307 308 311 306 302 307 308 307 306 309 314 317 318 320 321 322 322 322 323 324 324 324 324 324 325 325 325 325 325 325 325
322 321 321 321 321 321 320 320 320 321 320 320 320 319 319 319 318 318 318 318 317 317 317 317 317 317 316 316 316 316 316 315 314 314 314 313 313 312 311 310 309 306 305 303 306 303 296 305 302 301 308 309 309 309 310 309 307 307 309 307 307 307 306 307 311 315 316 317 319 321 321 321 321 321 322 321 322 322 323 322 321 321 322 323 323
321 321 321 320 321 317 320 320 320 320 320 320 320 319 319 319 319 319 319 319 318 318 317 317 317 317 316 316 316 316 316 315 315 313 313 314 313 312 312 312 312 310 309 306 307 308 300 297 305 302 301 307 308 308 308 309 305 306 307 306 306 307 305 305 308 311 312 314 316 318 319 320 320 320 320 320 320 320 320 321 321 321 321 322 322
320 320 320 320 320 320 320 320 320 320 320 320 320 319 319 319 318 318 319 319 318 318 318 317 317 317 316 316 316 316 316 316 315 314 313 313 314 314 314 314 313 313 312 311 306 311 312 311 305 306 305 305 308 309 308 307 306 306 307 306 305 303 301 303 303 307 310 313 315 315 316 317 318 319 319 319 319 319 319 319 319 320 320 320 321
320 320 320 320 319 319 320 320 319 319 319 319 319 319 319 319 318 318 318 318 318 318 318 318 318 318 317 316 315 316 316 316 316 316 316 315 315 315 315 314 314 314 314 312 309 309 311 310 308 307 308 308 306 306 306 307 307 302 306 306 306 300 301 303 300 302 306 309 311 311 313 314 314 315 316 317 318 318 318 319 319 320 319 319 317
320 319 319 319 319 319 319 318 319 319 319 319 319 319 318 318 318 318 317 317 317 317 317 317 318 318 317 316 315 316 316 315 317 317 317 317 316 316 316 316 315 315 314 312 310 309 313 310 307 308 307 308 305 305 306 304 303 301 302 304 304 304 303 303 303 299 301 304 306 308 309 310 310 311 312 313 314 315 316 317 317 318 316 315 311
319 319 319 320 319 319 319 319 318 319 319 319 318 318 318 317 317 318 317 316 316 316 317 317 317 318 317 316 316 315 316 316 317 316 317 317 316 315 315 315 315 314 315 313 310 310 309 312 305 305 306 305 308 300 307 304 302 298 299 300 300 300 302 301 301 301 299 301 304 306 307 307 307 306 307 307 308 309 311 313 311 310 309 307 306
319 319 319 319 319 319 318 318 318 318 318 318 318 317 317 317 317 317 317 316 316 315 315 316 316 316 316 315 315 315 316 315 316 316 316 315 316 315 314 314 314 314 314 314 312 309 309 310 311 307 307 304 308 308 303 304 305 303 302 299 300 301 301 299 299 300 299 301 303 304 305 305 305 305 304 304 304 304 304 305 305 305 304 305 305
318 318 319 319 318 318 318 317 317 317 317 317 316 316 317 317 316 316 316 316 315 315 315 315 315 315 315 315 315 315 314 314 315 315 315 314 314 314 314 314 314 313 313 313 313 311 310 308 311 311 305 307 307 302 305 304 302 299 300 301 298 299 298 297 297 297 297 299 301 302 302 303 303 303 303 303 302 302 302 302 302 302 302 302 303
318 317 315 316 317 317 318 317 317 316 316 316 316 316 316 317 316 316 315 315 315 314 314 314 309 314 314 314 315 315 314 314 314 314 314 313 313 313 313 314 313 313 313 312 311 311 310 309 310 310 304 305 306 302 301 302 295 293 293 296 298 298 297 297 295 296 296 297 298 299 300 301 301 302 302 302 301 301 301 301 301 300 300 301 301
316 314 315 312 314 315 315 316 316 316 315 315 315 316 316 315 315 315 315 314 314 314 314 314 314 313 314 314 314 315 314 314 314 314 314 313 313 312 312 312 313 312 311 311 311 311 310 310 310 310 299 301 297 298 296 301 299 297 297 296 294 294 295 295 294 295 295 296 296 296 296 298 299 300 301 300 300 300 300 300 299 299 298 299 299
312 311 310 311 310 313 314 314 315 315 315 314 315 315 315 315 315 314 314 313 313 313 314 314 314 314 314 314 314 315 315 315 314 314 314 313 313 312 312 312 312 311 310 310 310 310 310 309 309 310 310 302 304 304 296 296 297 299 300 297 296 295 292 294 296 294 294 294 294 294 295 295 295 295 297 298 298 298 298 298 298 297 296 297 297
309 310 310 311 311 310 313 313 314 313 313 313 313 314 314 314 313 313 313 313 313 313 312 313 313 314 315 315 315 315 316 316 315 315 314 313 313 312 312 312 311 310 310 310 309 309 309 308 308 308 307 307 296 294 288 290 292 295 292 295 298 297 295 293 294 297 293 291 291 292 293 293 293 293 294 295 296 297 297 296 296 295 295 296 297
308 309 310 310 309 308 308 310 310 309 311 312 313 312 312 312 313 313 313 312 312 312 312 313 313 314 314 315 316 316 313 305 304 306 307 307 314 312 312 311 310 310 310 310 309 309 308 308 307 307 305 301 301 300 295 294 298 302 293 293 296 298 298 296 295 293 292 290 290 290 290 291 290 290 290 290 291 293 293 293 293 293 294 295 295
307 306 306 306 308 309 309 307 307 307 309 313 306 304 305 312 313 314 313 311 311 311 311 312 313 314 315 315 315 303 301 299 299 300 301 302 303 311 314 312 310 310 309 308 307 307 305 305 305 305 303 302 301 299 298 297 294 295 292 291 294 295 295 294 295 293 290 291 291 290 290 290 289 289 288 288 289 289 289 290 290 290 292 293 294
304 303 304 306 306 306 307 307 307 307 309 311 303 304 303 304 309 312 312 312 311 311 312 312 313 313 314 315 316 307 301 297 300 298 300 300 300 300 302 304 305 311 309 307 307 307 304 304 305 303 303 303 303 301 299 299 294 296 297 295 295 294 295 295 297 291 289 291 290 290 291 289 289 288 288 287 288 287 287 287 291 292 292 293 294
301 299 302 305 306 304 305 305 306 307 308 302 303 303 302 302 302 309 313 313 313 313 313 313 314 313 313 314 314 314 314 311 311 307 301 298 299 299 300 300 301 302 305 309 306 303 304 303 302 303 303 303 304 298 300 295 295 292 294 294 293 294 293 293 294 297 291 291 291 290 292 287 287 288 288 287 287 287 286 289 292 292 293 293 292
298 300 304 303 303 302 302 304 305 305 305 301 301 300 300 300 300 302 312 314 314 313 314 314 314 314 313 312 313 314 315 301 302 311 312 308 298 297 298 298 298 300 302 302 304 309 310 307 305 304 304 304 303 301 298 295 295 295 294 293 293 293 294 294 296 295 289 289 291 289 290 287 285 286 287 286 285 286 286 291 292 291 291 291 291
300 302 299 302 302 301 302 303 304 303 304 300 299 299 299 299 300 301 308 311 312 313 313 313 313 313 313 312 312 311 311 309 308 309 311 311 311 306 302 302 303 301 298 299 300 299 302 310 308 305 307 305 304 302 296 297 296 296 295 294 293 293 293 294 297 298 292 288 292 290 288 286 285 286 286 284 284 285 285 290 291 291 291 291 290
301 302 302 301 302 301 302 303 304 305 307 301 299 299 299 299 299 299 305 307 308 309 311 311 311 310 311 312 312 312 311 310 309 306 308 309 308 308 305 303 304 305 306 305 304 305 304 306 309 309 309 306 306 303 298 299 301 299 299 297 296 296 296 293 291 286 285 288 291 291 292 287 285 285 286 284 283 283 284 290 290 290 290 290 290
295 297 297 298 298 299 299 299 300 303 302 301 300 299 298 299 298 301 303 304 305 307 308 310 310 310 311 311 310 310 310 310 303 300 302 308 310 305 302 303 303 303 304 302 302 303 306 309 309 309 308 306 302 302 299 300 300 299 296 295 294 292 293 292 293 289 289 287 289 291 290 285 284 286 285 282 283 283 284 285 289 289 290 290 290
292 293 296 296 296 297 296 296 298 300 300 299 299 298 298 297 298 298 299 300 302 304 306 308 308 309 309 310 310 311 311 310 303 302 301 298 304 301 300 299 301 302 303 303 300 299 299 300 301 302 302 302 301 300 300 299 297 297 296 295 295 292 292 292 292 289 289 286 286 289 290 287 283 285 281 281 281 281 282 283 285 288 289 289 290
291 293 295 294 294 294 295 297 297 299 300 297 297 297 297 297 296 298 298 299 301 302 303 305 306 307 306 296 296 307 307 307 301 299 299 298 301 300 298 298 295 296 299 299 300 300 297 297 296 297 297 298 298 298 298 298 298 296 296 296 294 292 293 294 295 292 288 286 287 287 288 288 283 284 280 279 279 279 281 282 283 286 289 289 290
289 290 290 291 291 291 291 292 289 293 295 293 293 294 295 295 295 297 297 297 298 299 301 302 302 303 304 298 294 296 301 303 302 302 301 299 302 301 300 299 298 299 301 299 299 297 295 293 294 293 293 292 294 295 294 295 296 294 297 298 293 294 294 293 293 290 288 288 287 287 289 286 281 283 281 278 277 279 278 280 282 282 281 281 284
Wind_Speed
7 8 6 7 7 7 7 7 6 5 5 6 5 5 5 5 5 6 5 6 5 6 5 5 5 5 6 6 6 6 5 5 5 5 4 5 6 7 11 12 12 12 12 12 11 11 11 12 13 13 12 11 10 11 11 11 11 13 13 14 13 12 12 12 11 11 10 11 11 11 11 11 11 11 11 11 11 11 11 11 10 9 9 9 9
7 7 8 8 7 7 7 7 8 7 5 6 6 5 6 5 5 5 6 6 5 6 5 6 6 6 6 7 6 7 6 6 6 5 5 5 5 6 11 13 13 12 12 13 13 12 12 12 12 13 14 13 12 12 11 11 12 13 13 15 14 13 13 13 13 12 11 12 12 12 12 11 12 12 12 12 12 11 11 10 9 9 9 9 9
7 8 7 8 8 7 7 7 7 7 6 7 6 7 6 6 6 6 6 6 6 6 6 6 6 6 6 6 7 6 6 6 6 5 4 6 6 5 7 12 14 13 13 14 14 13 13 13 13 13 13 14 14 14 13 12 13 14 13 14 15 15 14 13 14 14 13 13 13 13 13 13 13 13 12 12 12 12 11 10 9 10 10 9 9
8 8 8 8 8 8 7 8 8 7 7 7 7 6 7 7 7 7 7 6 6 6 5 6 7 7 6 6 6 6 6 6 6 6 6 6 6 6 6 7 12 14 13 13 14 14 14 14 13 13 13 14 14 15 14 14 14 13 14 15 16 16 16 15 15 14 14 14 14 14 14 14 14 13 13 13 13 12 11 10 10 10 10 10 9
8 9 9 8 8 8 8 8 7 7 7 8 8 6 6 6 6 5 6 6 6 6 4 5 6 7 6 7 6 6 6 6 7 6 7 7 7 6 6 6 6 11 14 13 14 14 15 15 14 14 14 14 14 14 15 15 15 15 15 16 16 18 18 17 17 16 15 15 15 15 15 15 15 14 14 14 13 12 12 11 10 10 10 10 10
9 9 8 8 8 9 9 8 7 7 7 7 8 7 7 7 7 6 6 6 6 5 5 6 6 6 7 6 6 7 6 6 7 7 7 7 7 6 7 6 6 6 7 13 14 14 16 15 15 15 15 15 15 15 15 15 15 15 16 17 18 17 18 18 17 18 15 16 16 16 16 15 15 15 14 14 13 12 12 11 11 11 11 10 10
9 9 9 8 9 9 9 8 7 7 7 7 8 7 7 8 7 7 6 6 6 6 6 6 6 7 7 6 7 6 6 7 7 7 7 7 7 7 7 7 6 7 7 7 9 15 15 14 16 17 17 16 16 15 15 16 15 16 16 17 18 17 18 18 18 19 17 17 17 17 16 16 16 15 15 14 13 13 12 12 12 12 12 11 11
10 9 9 9 9 9 9 7 8 7 7 7 7 8 7 7 7 7 7 8 6 7 5 6 6 7 6 6 6 6 7 7 8 8 8 7 7 7 7 7 7 7 8 7 7 8 15 16 15 16 16 17 17 17 17 16 16 16 16 17 18 18 17 19 19 20 19 17 18 18 17 17 16 16 15 15 15 14 14 13 13 13 12 12 12
11 10 10 10 9 9 8 8 7 7 7 7 8 7 7 7 7 7 7 8 7 7 6 6 6 6 6 6 7 6 7 7 7 8 7 7 8 8 8 8 8 8 7 8 7 7 11 15 16 17 16 16 16 18 18 18 17 17 17 18 18 18 17 17 19 20 19 19 19 19 18 18 17 16 16 15 15 15 15 15 14 13 13 13 13
12 11 10 10 9 9 7 8 7 7 8 8 9 7 7 8 9 7 7 7 8 7 8 5 5 6 6 7 8 7 8 7 7 7 7 8 8 9 9 8 8 8 8 8 8 8 8 11 15 16 16 16 16 17 18 19 19 18 18 18 18 18 18 18 19 21 21 21 19 17 18 19 18 17 17 17 17 16 16 16 15 15 14 14 14
12 12 11 11 9 9 8 9 8 8 8 8 8 8 8 8 10 8 6 8 8 7 7 5 6 6 7 8 8 9 9 8 8 8 8 9 9 10 8 9 8 8 8 8 8 8 8 8 7 7 10 15 15 15 17 19 19 19 19 18 18 19 19 19 18 19 22 19 19 20 20 20 19 19 19 19 19 18 17 17 16 16 16 15 15
12 12 12 11 10 10 10 8 8 8 9 10 10 9 11 10 10 9 8 6 6 6 5 5 5 6 8 8 8 9 9 9 9 9 9 9 9 8 9 9 8 9 9 8 8 8 8 8 8 8 8 11 16 16 17 16 16 17 20 20 20 20 19 19 18 18 21 21 21 21 19 20 21 21 20 20 20 19 19 18 17 17 17 16 16
11 11 12 12 11 9 9 9 9 10 10 12 12 11 9 9 8 7 9 9 8 6 7 5 6 8 6 9 9 8 10 10 11 10 10 9 8 8 9 8 8 9 9 7 8 8 8 8 8 8 8 7 9 14 16 16 16 16 20 20 20 20 20 19 19 16 20 23 21 20 20 21 22 22 22 21 21 21 20 20 19 19 19 18 17
11 12 11 11 12 11 11 12 10 11 11 10 9 9 9 8 7 7 7 10 10 7 5 5 6 9 6 6 5 5 9 10 11 11 11 10 9 9 9 10 10 9 8 7 8 8 9 8 8 8 8 8 8 7 9 10 12 15 19 21 21 21 21 20 20 19 19 20 23 22 23 22 21 22 22 22 22 21 21 20 20 20 20 19 19
12 12 11 12 13 12 12 11 11 11 10 11 11 11 10 11 11 11 8 6 8 4 8 11 9 3 3 3 7 4 4 4 7 11 11 11 9 9 10 10 11 9 8 7 8 9 8 8 8 8 8 8 8 8 8 8 10 14 17 19 19 21 21 21 21 20 18 20 22 22 23 21 22 23 23 23 22 22 22 21 20 20 21 20 20
12 12 12 13 14 14 12 11 12 11 11 11 11 12 11 10 11 11 9 9 7 9 9 10 9 6 3 8 3 1 10 5 6 6 8 12 11 12 9 10 10 9 6 8 9 8 8 8 9 9 9 9 8 8 8 8 12 15 17 18 19 19 21 21 21 21 20 19 20 21 24 24 23 23 23 24 24 24 23 22 21 21 21 22 22
14 14 14 14 13 12 12 12 11 11 10 11 12 13 12 11 11 10 12 13 11 7 7 9 11 10 7 4 1 1 7 5 2 7 3 4 8 10 9 10 10 9 8 9 8 8 9 8 8 7 8 8 8 8 8 8 9 8 11 15 17 18 19 21 22 21 21 20 19 20 23 23 24 25 25 26 25 25 24 24 22 22 22 22 22
14 14 14 13 14 14 13 12 11 10 11 12 11 10 11 12 12 12 13 13 11 8 8 6 11 12 14 10 6 6 3 3 2 6 3 5 5 3 7 9 8 8 7 7 8 9 8 9 8 9 8 8 8 8 8 8 9 8 8 10 16 17 17 19 22 22 22 21 20 20 22 25 26 26 26 26 25 24 24 24 24 24 25 23 24
15 14 15 15 14 13 13 13 12 11 11 10 11 13 11 12 10 11 13 10 10 12 12 7 4 10 11 14 13 6 1 0 6 1 8 4 2 6 6 5 7 7 7 8 8 8 8 8 8 8 8 8 8 8 8 9 11 11 12 13 16 17 18 18 20 21 23 22 22 21 22 23 24 25 25 26 26 26 27 26 26 25 24 25 25
14 14 15 15 14 14 13 13 13 13 11 12 13 11 10 9 11 12 10 10 12 14 12 8 11 9 10 12 12 12 9 5 4 6 6 10 12 2 2 5 4 6 8 8 8 9 9 8 8 8 8 8 8 7 8 8 8 9 10 14 17 17 17 18 18 19 21 23 23 23 23 23 23 23 25 26 27 27 27 27 27 27 26 27 25
14 14 14 14 14 14 14 14 13 13 11 11 12 12 14 12 11 12 13 12 12 13 10 11 10 11 6 10 9 11 9 9 6 4 8 5 17 13 8 2 2 5 6 6 7 8 9 9 9 9 8 8 8 8 8 8 8 8 9 14 17 18 18 19 18 18 19 19 21 22 23 23 24 24 24 24 25 27 27 26 27 27 26 26 27
14 14 14 15 15 14 14 15 15 13 12 14 13 13 13 13 14 13 12 13 11 11 14 11 10 9 9 6 8 8 7 8 8 8 5 8 12 13 3 3 5 4 3 5 8 8 8 8 8 7 8 8 7 8 8 8 8 8 10 16 17 18 19 18 18 17 18 19 20 20 20 22 23 24 24 24 24 24 24 25 26 27 28 27 28
11 12 15 14 14 14 14 15 13 12 13 14 14 14 13 13 13 12 13 15 12 12 12 12 10 9 10 10 11 11 12 12 12 9 10 8 8 15 16 7 10 13 6 8 7 9 9 8 8 8 8 8 8 8 8 8 10 11 14 15 17 18 18 18 19 18 18 19 20 20 20 20 21 22 24 25 25 23 24 24 23 25 26 25 26
10 11 13 15 14 13 15 13 13 14 15 14 14 13 13 11 11 12 13 14 13 12 12 13 13 11 11 11 11 9 10 12 8 8 11 12 10 13 12 1 3 9 3 3 5 6 7 9 8 8 9 8 8 8 9 9 9 15 13 14 16 17 17 20 20 19 19 19 19 20 20 20 20 20 20 22 23 25 26 26 26 25 25 24 25
12 14 15 17 14 15 15 14 15 16 16 15 15 14 12 12 12 13 13 13 14 14 12 14 13 13 13 10 10 10 12 9 6 8 8 8 9 11 13 2 10 10 3 2 4 3 8 8 8 8 9 9 8 8 8 8 8 11 15 12 17 17 17 18 19 20 20 19 19 19 20 21 22 22 22 22 23 24 25 25 25 24 25 23 23
15 15 16 15 14 16 15 16 16 15 14 15 14 13 13 12 12 13 14 13 11 13 15 14 12 14 10 10 11 11 11 9 9 7 9 8 9 12 11 3 3 10 2 2 2 2 5 5 7 8 8 8 9 9 7 9 9 13 16 12 13 16 16 16 16 18 19 19 19 19 20 20 22 24 22 24 25 24 24 25 25 24 23 22 23
14 14 11 11 14 14 15 15 15 15 14 14 13 12 12 12 12 13 12 11 13 13 13 14 14 14 13 13 11 10 12 10 9 10 9 11 11 9 7 11 8 5 9 3 4 9 11 3 7 8 9 9 9 8 9 8 11 15 15 11 9 13 15 16 14 17 17 18 19 19 19 19 21 24 23 22 23 23 24 25 24 24 23 23 24
12 11 11 12 14 15 14 15 15 14 14 14 14 12 12 13 12 12 14 10 12 15 14 12 15 15 14 12 11 13 11 10 10 10 10 10 10 7 8 9 10 13 5 8 7 9 5 7 4 8 8 9 9 8 10 11 9 14 14 8 8 9 13 14 13 15 16 16 18 18 19 19 20 21 23 22 20 19 19 19 18 18 18 18 18
13 11 12 12 12 13 14 15 14 13 13 14 13 13 12 12 13 13 14 12 12 14 12 13 13 12 12 14 13 12 11 9 9 10 10 9 9 9 9 11 10 10 10 8 12 7 3 7 4 4 8 8 7 6 7 7 10 11 8 8 8 8 11 14 13 14 16 15 15 17 18 18 18 20 21 23 20 19 17 16 16 18 21 19 17
12 10 11 12 12 13 13 14 13 13 14 13 13 14 13 13 14 14 14 11 12 11 12 13 13 11 12 12 12 13 11 9 11 9 10 11 10 10 10 10 9 12 11 11 13 7 4 3 6 4 3 7 7 6 6 7 11 12 7 7 8 9 13 14 14 15 15 15 15 15 16 16 17 17 18 18 21 21 23 20 20 18 19 20 22
12 11 11 12 12 12 13 14 12 14 14 14 14 13 14 13 13 13 13 12 12 14 12 11 11 10 12 14 13 13 11 11 10 9 9 10 11 10 10 9 11 12 12 10 11 11 4 9 5 6 6 6 6 6 6 6 8 9 7 7 8 11 13 10 13 14 13 12 13 12 12 15 15 16 16 18 19 21 22 21 22 24 23 24 24
10 11 12 12 13 13 13 13 13 13 13 14 14 14 13 13 13 12 12 12 14 15 13 11 10 11 12 14 14 13 11 9 10 10 10 10 10 10 11 10 11 11 11 11 13 17 7 5 5 6 8 7 6 6 7 6 7 9 7 8 9 11 8 7 12 14 13 12 11 11 10 12 13 15 16 17 18 20 21 21 22 22 21 19 19
11 12 12 13 13 13 13 13 14 14 14 14 13 12 12 14 13 13 12 12 14 14 12 12 12 12 13 14 14 13 10 11 11 10 10 11 10 10 10 10 11 10 11 11 13 14 12 5 4 5 5 6 6 6 7 7 6 5 6 6 6 7 7 8 8 11 12 12 11 10 9 12 12 12 13 15 17 20 20 21 21 20 17 14 6
11 12 13 12 11 12 12 13 13 13 13 13 12 11 13 14 14 11 12 13 13 14 12 13 13 11 12 13 14 13 11 12 12 12 11 10 10 10 10 11 11 10 10 10 11 11 14 10 5 2 4 5 8 3 8 7 6 4 5 5 5 5 7 7 6 6 11 11 10 11 11 11 10 10 10 9 11 13 16 18 16 13 8 3 4
10 11 12 11 11 11 11 12 12 12 13 12 11 12 13 14 15 13 13 13 14 14 14 15 14 12 12 13 15 13 9 11 13 13 10 10 10 11 12 10 11 11 10 11 10 12 13 15 9 6 7 4 9 8 5 6 7 7 7 6 7 6 5 5 6 5 7 10 9 10 10 11 11 11 10 10 8 9 11 11 11 9 7 7 9
10 10 10 10 10 10 12 12 12 12 12 12 12 12 14 14 14 14 13 13 14 14 15 15 13 12 13 13 15 13 11 12 12 11 10 9 10 11 11 11 11 12 11 10 12 12 10 12 13 10 5 7 8 5 6 6 6 5 7 6 4 5 4 4 5 5 4 8 10 12 11 11 11 10 10 9 8 8 9 9 9 8 7 7 8
11 10 9 8 9 10 12 12 12 12 12 12 13 13 13 13 14 14 14 13 13 14 14 14 13 13 14 15 15 12 11 12 11 11 10 11 10 10 11 11 11 10 9 10 11 10 11 12 12 9 5 7 6 6 5 6 4 4 3 6 6 6 5 4 3 3 4 7 9 10 11 11 10 11 10 10 9 9 9 9 9 8 8 8 8
10 8 9 8 9 11 11 11 11 12 12 12 13 14 14 13 13 13 13 13 13 14 13 13 13 13 13 14 13 12 12 13 12 11 10 12 11 11 12 11 11 9 10 10 10 11 12 12 11 12 6 7 5 5 5 7 6 6 6 6 3 3 5 5 6 5 4 4 5 6 8 9 11 12 11 9 9 9 10 10 10 9 8 8 8
8 8 8 9 9 10 11 11 12 12 12 11 12 13 13 12 13 13 12 12 12 12 12 13 12 11 12 12 12 12 13 13 13 12 12 11 11 13 12 12 11 9 10 11 11 12 12 12 12 12 12 7 8 8 4 6 6 7 8 6 7 4 3 6 8 5 4 5 5 7 7 7 7 6 6 7 10 10 10 11 9 9 8 8 9
9 9 10 11 10 10 11 11 11 10 10 11 11 12 12 12 11 12 12 12 12 11 11 11 11 11 12 12 13 13 13 13 12 12 12 12 10 11 11 10 10 11 11 11 11 11 12 12 12 12 10 9 5 4 2 3 4 6 4 4 9 6 7 7 10 9 5 5 6 6 6 6 6 7 8 9 10 11 10 8 8 7 8 7 8
9 10 9 9 9 9 9 9 9 8 10 11 11 11 11 11 11 11 12 12 11 11 11 11 11 11 11 12 12 13 14 16 17 16 15 14 11 11 11 10 11 11 12 11 11 11 11 11 12 10 10 8 9 8 7 7 12 12 4 7 8 7 6 6 8 7 6 6 6 5 6 6 6 6 6 6 6 8 8 8 6 8 8 9 9
9 8 8 8 9 10 10 9 8 8 9 9 12 17 15 11 11 11 10 10 10 10 11 11 11 11 12 12 13 18 18 17 17 17 18 18 19 17 13 10 11 11 12 12 11 11 10 11 12 11 11 11 10 10 9 9 5 3 4 4 7 7 4 6 7 6 6 6 6 8 8 5 7 6 5 7 6 6 5 5 5 6 7 11 11
9 8 8 9 10 9 10 9 9 9 10 10 16 15 16 16 11 9 10 10 10 10 11 12 12 12 11 12 12 14 14 14 14 18 19 20 21 21 21 19 16 14 12 13 13 11 10 12 12 10 12 13 13 8 8 7 5 8 8 7 8 5 8 8 11 2 5 9 7 6 7 6 7 8 7 7 6 5 4 5 7 9 10 11 10
7 5 7 9 9 7 8 8 9 10 10 12 15 14 15 16 14 10 9 9 9 10 11 12 12 11 12 12 12 11 11 12 12 13 16 20 21 21 21 21 20 20 20 16 13 11 12 11 11 12 11 13 12 6 9 5 6 4 7 7 8 9 8 10 7 8 3 10 7 6 8 4 6 6 6 6 5 5 5 7 12 12 11 10 10
2 5 7 5 6 6 6 8 9 8 8 10 12 12 13 13 14 12 8 9 9 10 10 11 11 11 10 11 12 11 11 15 13 13 13 14 18 22 21 21 23 23 22 23 21 17 13 15 16 15 14 12 11 11 7 7 6 10 8 8 8 7 8 10 11 7 3 8 6 5 6 4 7 7 7 4 5 4 5 9 13 12 11 11 10
5 6 5 6 5 5 6 7 7 6 8 8 11 12 13 14 14 13 9 10 10 10 10 10 10 10 11 12 11 11 9 8 9 11 12 12 11 11 12 13 13 16 19 22 22 24 20 17 16 16 15 11 14 10 8 10 10 11 9 10 8 9 10 13 11 11 3 9 10 6 5 3 5 6 8 5 5 5 5 8 13 12 11 11 11
5 6 5 5 6 5 5 6 6 7 6 6 10 12 12 13 13 12 7 8 8 8 9 9 9 8 9 10 10 10 9 9 10 12 11 10 8 8 8 10 13 13 14 15 14 14 15 15 15 14 13 11 13 9 9 11 15 13 13 13 14 14 11 4 3 2 2 6 5 5 8 3 5 5 7 5 5 5 5 9 14 12 12 12 12
3 1 2 2 4 4 4 4 4 6 4 4 6 7 8 8 8 6 5 6 7 8 9 9 9 8 8 8 8 8 8 8 10 15 15 11 13 15 14 14 12 12 14 15 18 20 19 17 16 17 14 12 13 11 11 12 11 9 7 3 1 3 3 5 10 3 6 5 7 8 4 3 5 8 4 3 4 5 4 4 10 13 13 13 13
3 3 3 3 2 3 3 3 4 5 4 3 1 2 2 2 1 2 3 4 6 8 11 10 10 10 10 10 10 11 12 13 13 14 15 14 12 12 11 12 12 12 13 11 16 22 23 22 22 19 17 15 13 14 15 17 12 9 6 7 10 6 6 9 8 5 7 5 7 9 5 4 5 6 4 2 4 4 4 4 3 9 13 12 13
4 5 4 4 3 3 4 5 5 7 7 4 5 7 7 7 5 4 4 5 7 8 9 9 8 8 9 12 10 9 9 8 6 9 10 11 10 10 9 11 11 12 13 7 8 13 15 17 17 16 15 14 13 12 13 15 17 13 11 14 8 8 10 10 10 7 4 6 8 8 5 5 6 5 4 2 2 1 3 3 4 5 10 10 12
3 2 2 2 3 3 3 4 6 6 7 6 6 7 8 8 6 4 5 6 9 10 9 10 8 9 9 9 13 12 12 13 16 16 15 11 11 10 11 12 16 16 16 7 12 9 7 7 8 8 8 10 8 8 10 16 17 15 14 13 8 11 11 9 8 3 4 8 6 10 9 3 8 5 7 4 3 2 3 3 5 5 4 5 5
Wind_Direction
201 200 193 201 198 193 200 206 204 204 199 211 209 205 209 205 211 218 217 223 227 241 238 242 236 231 226 240 236 238 243 239 229 228 228 220 214 226 225 225 226 221 225 233 233 233 234 236 243 247 244 241 236 233 230 238 237 219 220 220 215 207 201 203 201 209 213 214 212 209 204 199 198 200 202 203 202 201 199 198 192 186 184 182 182
204 204 198 201 204 199 199 205 208 212 208 210 211 212 213 211 218 220 222 225 226 234 229 246 245 236 223 230 229 228 229 236 241 232 219 224 224 226 230 227 227 224 225 231 235 235 236 237 239 243 249 250 241 235 238 241 244 240 220 225 220 211 207 206 207 201 212 217 217 215 212 208 204 206 209 208 209 209 209 204 197 194 194 192 190
201 201 208 203 204 204 206 202 209 209 207 213 211 213 210 212 210 213 218 222 228 227 222 238 247 248 239 230 238 235 239 238 243 243 236 220 222 226 230 234 232 227 225 228 234 237 238 239 239 241 239 241 245 242 239 239 245 250 237 228 227 223 213 212 208 203 202 214 221 219 217 216 214 212 213 214 215 216 214 212 208 204 202 201 200
200 201 204 204 208 208 206 206 211 208 205 209 210 212 212 216 217 216 215 211 222 224 224 229 245 245 242 238 239 241 244 242 243 242 241 242 230 230 232 231 233 233 228 228 232 235 238 239 240 240 238 238 240 240 238 236 239 248 252 235 230 226 224 214 209 212 207 207 218 221 221 222 220 219 218 219 219 219 219 218 215 214 212 210 208
203 203 201 206 205 208 211 212 209 205 206 210 212 212 217 220 227 219 222 217 222 235 231 233 242 247 244 247 240 243 239 238 240 242 241 239 238 235 235 232 235 235 232 230 233 235 236 238 239 240 239 237 237 240 239 238 237 240 246 250 235 227 222 218 209 205 214 220 216 219 222 223 224 224 224 224 223 222 224 222 222 222 221 219 217
196 204 203 205 207 209 211 212 206 203 204 204 210 207 214 214 220 208 222 216 224 230 231 246 246 251 250 250 245 244 240 235 233 234 235 235 235 232 231 228 228 230 234 234 233 235 237 238 238 239 241 238 237 237 239 241 242 241 241 247 245 235 226 224 209 202 207 217 218 218 220 223 224 226 227 229 228 228 227 226 227 227 226 226 224
197 197 204 205 208 212 212 211 198 198 198 202 202 207 209 215 208 218 225 228 230 229 223 237 244 246 246 243 245 246 245 241 240 239 235 237 234 235 226 225 223 225 232 232 233 233 235 237 237 240 239 239 237 235 237 241 243 246 245 247 249 243 237 229 220 204 210 218 218 220 220 222 225 227 229 231 233 233 232 232 231 231 231 231 229
199 195 200 205 210 213 213 203 198 197 204 199 201 207 208 218 215 210 223 235 227 241 218 238 238 250 251 250 251 248 245 243 240 238 236 236 238 239 232 225 221 222 224 229 228 228 230 233 235 237 240 241 239 237 237 241 243 243 245 248 252 250 237 237 229 218 222 221 217 222 223 224 226 228 231 234 235 236 235 235 234 234 235 234 234
203 198 201 204 209 213 210 204 197 202 203 205 208 209 204 217 223 216 216 236 224 241 236 231 242 247 253 253 251 248 247 242 241 237 237 234 237 238 238 231 226 224 225 227 229 233 230 229 232 234 237 238 240 240 240 241 244 245 244 245 249 251 243 229 234 228 220 217 214 221 223 225 225 227 230 234 235 236 237 236 236 236 237 238 239
206 203 207 209 208 210 207 201 196 202 210 209 216 205 210 209 226 216 213 224 234 235 246 241 243 253 256 254 256 248 247 245 240 241 235 238 236 237 235 234 227 223 223 225 225 228 229 233 232 234 234 235 236 239 240 241 243 245 245 245 246 249 250 242 231 231 226 219 222 218 216 221 224 226 228 231 233 235 237 238 237 237 239 240 241
210 207 208 210 209 208 206 201 194 202 209 215 218 212 211 213 221 225 212 222 231 231 236 237 246 250 253 255 251 250 252 247 243 241 239 236 236 237 235 236 229 228 223 221 227 224 227 227 229 230 235 235 235 234 237 239 241 242 245 246 247 248 249 249 242 233 229 215 204 208 211 216 220 222 222 224 228 231 235 238 238 239 240 240 241
212 210 212 212 211 211 212 200 199 199 207 214 218 212 212 213 222 224 227 235 234 240 230 234 254 255 261 263 251 250 249 247 246 244 244 237 237 235 237 235 230 233 226 221 219 222 222 223 224 226 228 233 231 233 234 235 237 239 241 246 248 249 248 249 248 236 229 215 207 212 212 214 218 220 222 223 225 226 228 232 236 238 240 242 242
213 209 214 213 215 211 208 208 203 204 209 216 216 217 213 210 217 209 222 234 239 218 230 202 252 268 254 261 266 245 245 242 244 244 239 239 232 231 236 234 230 230 230 223 220 221 219 221 222 224 225 226 234 233 232 232 232 233 237 241 245 247 249 250 249 232 228 229 226 212 214 216 218 220 221 222 223 225 225 226 228 230 231 233 237
211 213 216 214 215 213 209 209 203 211 214 216 216 214 208 207 202 223 214 224 237 204 202 147 237 235 265 302 286 272 236 228 236 239 236 236 229 228 232 231 231 226 230 223 226 225 224 220 220 221 223 222 226 227 229 231 233 233 234 238 242 245 248 250 250 243 229 231 233 230 221 224 216 220 223 224 224 225 226 227 228 229 231 231 233
210 210 214 216 217 215 215 209 208 206 210 216 215 214 209 208 201 212 220 229 241 201 191 186 231 180 222 299 286 314 327 297 249 242 237 233 226 227 228 231 232 228 222 221 227 229 229 224 220 217 219 219 220 222 223 222 221 224 228 233 237 241 245 248 248 249 241 228 233 234 234 229 216 221 223 225 226 226 227 229 232 233 233 232 234
212 210 214 217 216 217 216 212 212 204 209 215 215 219 210 210 206 212 208 229 219 229 201 199 199 133 221 214 232 73 305 271 263 276 229 234 228 231 223 229 232 233 213 223 226 227 231 224 224 220 218 218 218 220 222 219 223 225 225 229 231 236 241 245 248 248 245 242 227 230 233 229 223 224 226 230 234 231 229 229 231 235 239 241 239
211 212 213 218 218 220 218 218 214 210 208 216 217 218 214 211 206 207 206 217 227 225 214 201 207 203 187 112 35 297 233 257 323 270 253 229 238 231 231 227 232 227 220 228 228 227 229 228 227 222 222 219 219 219 220 221 222 224 227 228 230 232 236 239 244 246 247 245 239 226 228 227 229 233 233 234 236 237 236 236 234 232 232 235 241
210 211 213 215 218 218 218 218 217 213 212 218 222 220 218 211 206 208 215 216 225 224 231 206 212 210 220 225 168 182 203 245 38 289 325 228 246 247 225 232 232 231 223 225 225 232 226 232 223 226 220 219 218 216 215 218 219 219 218 224 224 229 232 236 239 243 244 245 244 237 228 228 231 233 234 236 239 238 237 236 235 232 232 230 233
213 209 210 212 216 217 217 218 218 218 215 218 222 221 218 215 208 209 216 212 210 232 227 207 211 232 223 231 244 232 157 82 246 353 312 320 307 253 254 237 225 227 229 223 225 229 232 226 228 226 226 220 219 219 214 217 217 218 214 215 222 223 227 229 233 238 243 244 244 243 240 236 236 235 236 238 240 237 239 241 240 238 235 232 232
215 213 213 211 212 214 214 216 218 218 212 217 222 222 220 220 212 215 215 211 209 222 229 199 202 224 206 229 235 246 243 252 210 235 259 300 284 293 277 259 241 232 224 228 225 224 233 227 226 226 224 222 219 218 219 215 215 218 224 224 225 223 224 227 227 230 236 242 246 246 244 242 242 240 239 241 241 240 242 243 241 240 239 239 237
214 215 213 214 212 213 211 215 216 217 212 221 223 219 218 216 212 211 213 216 214 221 223 223 208 225 169 226 227 236 237 242 243 190 239 227 276 274 254 300 272 249 243 236 231 228 227 229 223 220 216 217 213 218 218 218 217 217 220 222 226 228 229 229 226 225 229 235 243 247 250 249 246 247 244 241 241 242 243 242 241 242 242 243 240
214 214 214 215 213 212 213 215 215 214 212 220 221 220 220 218 217 215 215 220 218 217 221 225 218 220 207 197 206 225 232 242 232 221 231 221 246 275 196 184 256 269 248 234 236 234 232 231 227 222 221 219 217 219 221 220 220 218 221 223 228 231 232 233 231 226 225 235 243 246 249 251 252 250 248 246 245 245 245 241 242 243 245 244 245
210 214 217 214 215 213 216 218 216 214 216 218 219 219 218 218 219 218 219 219 219 220 225 228 223 220 214 209 217 204 210 214 221 204 208 222 232 261 270 234 253 281 232 221 221 229 227 224 225 222 221 222 223 219 221 224 224 223 221 221 226 230 233 235 236 234 232 234 239 244 246 248 250 253 253 251 247 245 245 246 245 247 248 247 247
211 215 217 214 212 213 215 216 215 216 218 217 219 218 218 216 217 217 222 221 224 222 225 225 221 225 221 216 222 217 223 225 216 190 202 224 209 247 260 306 280 231 279 285 252 237 230 228 222 222 222 224 224 220 222 222 227 226 224 227 227 228 230 232 233 235 235 236 236 241 245 246 248 249 250 253 255 253 251 249 248 247 249 249 248
216 215 217 210 208 212 211 210 215 216 218 215 219 216 215 215 217 219 221 220 220 220 224 226 218 221 225 218 221 221 226 227 199 198 211 213 209 240 257 199 255 280 257 227 260 259 226 231 221 223 227 226 228 226 222 222 227 226 221 230 227 230 230 232 232 233 234 236 239 241 244 248 249 250 250 250 251 253 254 255 254 253 250 248 251
217 217 217 207 210 214 212 215 218 219 218 218 218 215 213 215 217 220 221 223 221 222 227 230 226 228 224 225 222 223 230 220 215 197 206 190 216 222 252 256 206 271 299 252 285 293 282 231 218 225 228 228 229 227 225 222 226 231 222 221 231 228 229 230 231 234 236 238 240 242 245 246 248 251 251 251 251 251 252 252 252 251 250 248 245
219 223 217 208 214 215 216 218 218 218 215 217 218 215 213 216 220 221 225 221 221 223 227 225 228 227 223 225 228 227 229 220 212 218 206 213 215 217 209 251 270 249 269 236 263 225 248 277 225 231 230 231 228 228 223 219 222 225 222 219 230 228 227 230 230 234 237 239 241 243 245 246 248 250 250 250 251 252 253 252 252 253 253 252 252
223 222 213 208 212 214 216 220 220 217 217 216 216 214 212 214 220 220 224 217 222 223 226 223 230 227 226 227 227 234 226 220 214 217 214 215 218 207 193 215 240 271 263 277 264 262 197 226 266 229 223 222 228 220 220 217 221 226 222 215 221 230 228 227 226 230 233 235 238 241 243 245 248 250 250 251 251 250 251 253 256 260 260 260 261
223 215 214 210 214 213 215 219 219 218 218 217 215 215 213 215 220 220 224 217 219 226 224 224 229 224 228 224 226 234 230 218 216 215 215 212 215 211 201 212 215 234 265 271 272 266 285 197 211 266 220 223 225 220 217 216 222 219 216 212 218 224 226 223 222 226 231 234 237 239 241 243 246 249 251 252 254 257 254 250 252 255 257 259 261
218 215 210 209 212 211 215 218 217 216 218 216 214 215 212 218 221 222 224 215 221 228 225 225 228 222 227 228 226 234 230 217 219 210 209 211 211 211 211 216 206 223 233 249 267 254 264 252 214 243 237 228 223 231 211 222 225 217 220 214 216 224 227 220 222 226 229 233 236 241 244 247 248 248 249 251 251 253 254 255 254 258 259 259 260
217 213 208 211 210 211 213 218 215 216 217 217 214 214 212 219 221 223 222 215 221 228 226 220 227 220 225 229 227 233 228 222 222 210 208 209 213 210 216 209 217 221 231 238 259 263 194 249 223 229 231 231 222 226 225 229 230 213 216 216 221 227 225 224 223 226 226 228 232 236 243 247 249 249 250 251 249 249 250 251 253 256 259 260 262
216 212 212 212 210 210 211 214 215 215 216 218 214 214 213 219 221 220 221 213 221 229 229 220 225 221 224 229 228 229 226 221 224 219 212 210 209 209 211 212 216 219 223 231 240 260 237 204 220 221 218 237 226 220 236 239 234 210 212 214 220 221 218 225 223 222 223 226 232 235 240 245 247 249 251 252 253 253 253 253 254 256 260 261 262
214 214 214 215 212 212 211 211 214 215 215 217 214 214 214 220 222 222 220 216 222 229 227 227 223 224 225 230 233 230 219 219 224 223 219 212 206 212 210 211 216 212 212 225 239 254 265 203 214 227 222 219 256 205 227 231 238 232 222 223 213 208 211 214 215 217 219 223 227 230 234 240 244 247 252 256 258 257 256 256 258 259 258 262 271
213 217 218 218 215 212 211 213 215 216 217 218 214 210 216 219 223 219 220 218 223 229 226 230 226 223 224 230 236 233 217 222 226 224 218 214 208 209 213 211 216 214 205 219 233 245 260 266 233 274 255 183 237 199 207 217 235 222 230 233 222 212 213 214 212 218 215 216 220 230 236 244 252 255 258 263 267 268 266 260 267 280 290 290 267
215 216 220 217 215 211 213 216 215 215 217 217 212 211 216 219 220 219 218 218 220 224 226 229 228 222 224 228 234 232 218 222 225 227 217 215 210 211 215 213 218 218 214 214 229 241 247 259 257 239 227 217 215 232 219 218 218 200 216 227 219 219 222 205 215 224 217 215 214 219 225 232 240 245 249 252 253 259 263 268 275 286 289 282 271
216 219 219 215 211 210 215 217 215 215 214 215 213 212 217 218 220 221 218 218 220 223 226 229 227 221 223 227 232 228 219 221 225 226 220 216 212 216 219 218 219 221 219 219 222 235 241 253 256 241 220 219 238 247 231 216 218 219 215 231 227 231 219 216 220 225 216 217 223 226 228 231 234 235 235 235 240 247 251 254 256 256 253 249 250
217 214 216 212 212 210 216 216 216 215 215 213 213 214 217 218 219 220 220 219 220 223 225 227 224 221 222 225 231 226 218 222 223 223 218 218 217 218 220 221 221 220 220 217 224 226 235 240 253 254 215 220 229 221 203 206 244 242 240 221 217 221 218 225 227 233 234 225 229 230 231 233 232 233 230 230 235 240 242 243 244 242 238 238 238
215 213 211 209 210 216 217 218 217 216 214 212 212 215 215 216 218 220 221 220 222 223 226 226 224 222 223 226 229 226 222 222 224 223 221 222 218 221 223 224 221 217 218 221 222 225 233 244 245 259 232 225 242 236 204 200 205 231 246 246 251 221 198 233 237 229 213 209 216 231 235 233 228 227 228 227 233 239 240 242 240 237 235 230 231
207 208 209 209 212 215 219 217 218 216 214 211 214 216 218 216 216 218 220 223 224 224 227 227 227 225 225 228 229 226 226 223 223 222 222 224 220 225 224 225 221 216 219 224 224 229 232 238 241 240 247 226 214 239 227 200 216 211 215 223 245 222 200 213 243 225 208 221 232 227 230 228 223 222 224 231 236 236 236 235 233 231 230 229 232
208 209 206 208 213 211 219 218 219 213 213 212 214 216 216 214 213 217 219 222 224 226 228 230 228 228 227 227 228 228 226 224 222 222 219 224 219 229 225 223 219 218 222 223 226 227 230 232 235 239 234 239 235 231 65 148 234 261 215 194 228 228 226 221 226 224 200 195 226 230 229 228 229 227 227 230 228 226 225 225 221 217 217 219 225
208 209 207 206 209 214 221 220 218 212 212 216 213 212 213 215 213 218 219 221 222 226 228 229 228 229 230 229 230 231 227 225 219 218 218 215 218 228 226 217 219 219 223 223 224 224 229 231 238 235 239 233 236 225 210 204 217 227 172 189 229 238 236 230 243 223 198 185 221 227 231 205 212 215 206 215 220 216 223 213 212 218 215 217 222
208 206 203 205 206 211 214 217 216 212 217 220 218 212 208 208 210 215 217 219 219 222 225 229 232 230 231 231 232 230 228 222 221 222 222 220 219 221 223 212 216 217 221 223 223 224 227 230 235 233 236 238 229 219 214 217 196 175 167 185 225 236 231 249 275 228 182 185 197 228 232 197 199 217 203 219 215 201 206 196 194 191 210 220 222
208 206 200 205 210 210 208 208 211 214 219 221 218 212 211 211 210 212 214 219 216 221 224 227 232 231 232 232 235 230 227 226 224 223 223 224 225 226 226 220 211 210 219 223 225 221 225 231 234 229 232 238 233 214 220 214 184 199 204 196 215 211 216 227 245 278 197 172 198 228 243 190 182 206 212 217 203 195 183 191 181 187 198 202 200
221 206 208 214 213 208 208 211 214 217 222 221 216 213 209 211 210 213 216 219 219 222 224 228 232 233 234 233 233 231 225 219 220 224 229 231 230 229 228 227 226 220 215 214 219 223 224 233 234 228 226 233 238 203 229 196 209 193 215 203 201 204 214 225 235 239 194 176 184 207 241 158 183 207 215 215 201 191 186 178 183 182 182 181 185
217 213 225 220 221 214 207 213 222 224 229 223 217 215 214 214 214 214 226 226 225 228 229 231 234 234 234 235 238 232 230 218 217 225 228 231 231 232 230 229 228 225 224 226 224 222 217 225 230 231 221 233 238 232 205 181 166 203 201 210 207 207 216 227 234 239 215 186 181 211 237 195 172 196 218 205 189 181 184 186 182 182 181 185 187
212 226 226 224 227 217 216 220 227 231 231 224 209 211 214 213 214 210 224 229 233 236 235 234 234 232 230 233 238 239 233 222 217 222 230 234 233 226 229 233 237 239 239 237 233 231 227 227 229 232 228 210 230 222 188 167 171 204 197 218 204 215 218 226 226 228 181 159 186 175 238 182 178 185 215 198 175 176 183 183 181 180 180 183 184
222 222 218 220 223 217 220 223 231 236 237 213 204 208 210 207 208 204 217 223 234 238 237 232 229 230 237 239 241 243 235 223 216 213 223 228 235 242 231 227 229 232 229 230 231 237 239 242 244 243 239 221 229 210 179 184 191 198 194 200 197 208 218 237 309 22 119 202 188 151 239 149 178 182 214 180 171 178 179 184 182 178 180 182 183
280 271 260 234 226 230 235 233 242 252 253 218 213 216 220 217 213 216 220 227 231 238 241 240 238 236 236 238 241 244 238 237 223 213 217 226 239 237 234 234 231 231 232 226 224 227 228 229 229 232 231 215 211 207 194 192 200 201 202 208 140 170 166 201 235 169 216 194 206 190 221 190 185 190 178 139 152 171 184 187 181 179 182 183 185
262 271 255 248 245 242 261 260 260 270 269 247 246 273 273 268 263 247 247 255 256 256 257 258 259 260 258 254 252 253 254 255 252 239 233 226 240 239 238 242 242 239 238 223 227 234 235 238 241 244 247 245 227 214 200 194 197 187 177 195 218 169 181 225 235 190 226 163 216 210 188 212 173 176 143 149 165 164 173 181 190 186 181 184 183
234 235 251 276 292 296 281 273 269 275 273 266 261 260 257 247 230 241 245 249 255 254 260 258 258 259 253 251 246 249 251 249 231 230 228 217 235 234 235 246 252 250 253 234 239 242 238 242 246 249 248 239 227 223 217 207 200 178 181 216 197 161 210 217 236 214 201 190 212 181 171 213 140 159 115 73 40 319 188 195 191 185 179 176 174
259 332 331 285 299 312 309 299 309 288 282 292 289 279 277 275 269 266 261 259 262 257 261 264 260 258 261 258 256 254 258 264 265 261 247 224 241 238 235 238 243 244 244 212 233 237 237 237 239 226 243 236 234 226 220 210 201 194 201 210 162 182 206 216 221 176 224 236 187 167 194 181 143 180 144 125 210 233 177 206 192 174 152 143 146